Regional Weather Roundup
Issued by NWS

Home | Current Version | Previous Version | Text Only | Print | Product List | Glossary On
Versions: 1 2 3 4 5 6 7 8 9 10 11 12 13 14 15 16 17 18 19 20 21 22 23 24 25 26 27 28 29 30 31 32 33 34 35 36 37 38 39 40 41 42 43 44 45 46 47 48 49 50
000
ASUS42 KFFC 241610
RWRGA
WEATHER ROUNDUP FOR GEORGIA
NATIONAL WEATHER SERVICE PEACHTREE CITY GA
1200 PM EDT WED MAY 24 2017

NOTE: "FAIR" INDICATES FEW OR NO CLOUDS BELOW 12,000 FEET WITH NO
SIGNIFICANT WEATHER AND/OR OBSTRUCTIONS TO VISIBILITY.

* = USE WITH CAUTION. THE STATIONS MARKED WITH AN ASTERISK MAY NOT
REPORT WEATHER SUCH AS PRECIPITATION, FOG, OR THUNDER AND ARE NOT
QUALITY CONTROLLED BY NWS.

THE REMARK "TC" DENOTES TEMPERATURE READING IN DEGREES CELSIUS.

GAZ001>058-241700-
NORTH GEORGIA

CITY           SKY/WX    TMP DP  RH WIND       PRES   REMARKS
ATLANTA        PTSUNNY   73  65  75 SW16G23   29.56F
ATHENS         PTSUNNY   74  68  81 VRB5      29.57F
CHAMBLEE       PTSUNNY   72  64  76 S8        29.56S
PEACHTREE CITY PTSUNNY   74  66  76 SW8G17    29.57F
ROME           LGT RAIN  62  61  96 VRB5      29.53F FOG
WEST ATLANTA   CLOUDY    71  66  84 S8        29.56S
CARTERSVILLE   PTSUNNY   72  66  81 S15G21    29.55S


CITY           SKY/WX    TMP DP  RH WIND       PRES   REMARKS
DALTON*        CLOUDY    61  61 100 SE6       29.54R
LAWRENCEVILLE* CLOUDY    70  64  83 CALM      29.58S
MARIETTA       CLOUDY    71  64  81 S12       29.56S
KENNESAW*      PTSUNNY   68  68 100 SW9       29.58F
CANTON*        CLOUDY    70  61  73 S13       29.57S
$$

GAZ059>098-102>109-241700-
CENTRAL GEORGIA

CITY           SKY/WX    TMP DP  RH WIND       PRES   REMARKS
AUGUSTA-BUSH   FAIR      79  70  74 S10G20    29.61R
AUGUSTA-DANIEL FAIR      78  67  68 S14G20    29.62S
COLUMBUS       CLOUDY    76  67  73 W10       29.57F
MACON          CLOUDY    76  69  79 SW7       29.58S THUNDER
ROBINS AFB     PTSUNNY   75  70  83 S13       29.58S


CITY           SKY/WX    TMP DP  RH WIND       PRES   REMARKS
LAGRANGE*      PTSUNNY   76  71  86 SW12      29.58S
SYLVANIA*      FAIR      77  73  90 S7        29.65F
MILLEDGEVILLE* TSTM      72  72 100 W7        29.59S VSB 1/4
$$

GAZ099>101-110>166-241700-
SOUTH GEORGIA

CITY           SKY/WX    TMP DP  RH WIND       PRES   REMARKS
SAVANNAH       CLOUDY    80  69  69 S12       29.68F
VALDOSTA       HVY RAIN  67  65  93 S8        29.68F FOG
ALMA           RAIN      74  72  93 S8        29.66F FOG
ST SIMONS      TSTM      74  71  91 S9        29.71S FOG
FT STEWART     PTSUNNY   78  70  78 S7        29.65R
ALBANY         LGT RAIN  77  72  84 S16G22    29.61F
HUNTER AFB     FAIR      80  75  86 S12       29.66R
MOODY AFB      RAIN      68  65  92 S10       29.66F FOG
BRUNSWICK      CLOUDY    75  70  83 S13G21    29.71R


CITY           SKY/WX    TMP DP  RH WIND       PRES   REMARKS
BAINBRIDGE*    PTSUNNY   73  70  88 S8        29.63F
MOULTRIE*      FAIR      70  64  83 S10G24    29.65F
VIDALIA*       LGT RAIN  75  72  88 S8        29.63F
WAYCROSS*      CLOUDY    74  74 100 S10G25    29.62F VSB 3/4
DOUGLAS*       CLOUDY    73  72  94 S8        29.67F
$$




USA.gov is the U.S. government's official web portal to all federal, state and local government web resources and services.